User: anonymous   Login
Location: *
(2.5500°S, 65.9667°W)
Time: 08:58:35
(UTC+00:00)
Language:

SR - Orbit

View from above orbital plane
View from above orbital plane
View from above satellite
View from above satellite

Ground track
Ground track

The orbit data is extracted from the following two-line orbital elements,

1 00046U 60007B   24107.67955992  .00005098  00000-0  99260-3 0  9990
2 00046  66.6903 221.7987 0201698 169.2226 191.3307 14.51702501341965
Epoch (UTC): 16 April 2024 16:18:33
Eccentricity: 0.0201698
inclination: 66.6903°
perigee height: 577 km
apogee height: 863 km
right ascension of ascending node: 221.7987°
argument of perigee: 169.2226°
revolutions per day: 14.51702501
mean anomaly at epoch: 191.3307°
orbit number at epoch: 34196

The dashed part of the orbit path shows where the satellite is in the earth's shadow,  

DLR